Location: Newark
(13.6797°N, 8.5297°E)
Time: 03:27:50
(UTC+00:00)

A-11 Canister half - Pass Details

Date: 25 January 2020
Orbit: 1517 x 1683 km, 47.2° (Epoch: 18 February)

Event Time Altitude Azimuth Distance (km) Brightness Sun altitude
Rises 05:03:18 0° 334° (NNW) 4,656 11.1 -12.5°
Reaches altitude 10° 05:07:12 10° 348° (NNW) 3,682 10.7 -11.6°
Maximum altitude 05:14:15 24° 38° (NE) 2,790 10.6 -9.9°
Drops below altitude 10° 05:21:23 10° 88° (E) 3,753 12.4 -8.3°
Sets 05:25:22 0° 102° (ESE) 4,765 14.0 -7.4°
